Location: Newark
(45.8667°N, 9.7333°E)
Time: 03:18:10
(UTC+00:00)

Transit 4A - Pass Details

Date: 25 January 2020
Orbit: 872 x 973 km, 66.8° (Epoch: 16 February)

Event Time Altitude Azimuth Distance (km) Brightness Sun altitude
Rises 04:19:07 0° 159° (SSE) 3,551 11.2 -26.4°
Reaches altitude 10° 04:22:40 10° 139° (SE) 2,593 10.7 -25.7°
Maximum altitude 04:26:05 16° 104° (ESE) 2,189 10.7 -25.1°
Drops below altitude 10° 04:29:29 10° 69° (ENE) 2,566 11.1 -24.5°
Sets 04:32:57 0° 48° (NE) 3,495 11.6 -23.9°
